Weather History for Nantucket, MA

Change the Weather History Date:

Friday, October 18, 2013

  Actual Average Record
Temperature  
Mean Temperature 60 °F -  
Max Temperature 68 °F 59 °F 70 °F (1975)
Min Temperature 55 °F 46 °F 29 °F (1965)
Degree Days  
Heating Degree Days 4    
Growing Degree Days 10 (Base 50)    
Moisture  
Dew Point 57 °F    
Average Humidity 85    
Maximum Humidity 97    
Minimum Humidity 57    
Precipitation  
Precipitation 0.01 in - - ()
Sea Level Pressure  
Sea Level Pressure 29.77 in    
Wind  
Wind Speed 11 mph (SW)    
Max Wind Speed 23 mph    
Max Gust Speed 29 mph    
Visibility 9 miles    
Events Rain    
Averages and records for this station are not official NWS values.
T = Trace of Precipitation, MM = Missing Value Source: NWS Daily Summary

Daily Weather History Graph

Daily Weather History Graph

Search for Another Location

Airport:

Trip Planner

Search our weather history database for the weather conditions in past years. The results will help you decide how hot, cold, wet, or windy it might be!

Date:

Astronomy

Oct. 18, 2013 Rise Set
Actual Time 6:55 AM EDT 5:54 PM EDT
Civil Twilight 6:27 AM EDT 6:22 PM EDT
Nautical Twilight 5:55 AM EDT 6:54 PM EDT
Astronomical Twilight 5:23 AM EDT 7:26 PM EDT
Moon 5:42 PM EDT (10/18) 6:27 AM EDT (10/18)
Length of Visible Light 11h 54m
Length of Day
10h 58m
Full, 100% of the Moon is Illuminated
Oct 18
Full
Oct 18
Full
Oct 26
Last Quarter
Nov 3
New
Nov 10
First Quarter

Hourly Weather History & Observations

Time (EDT) Temp. Dew Point Humidity Pressure Visibility Wind Dir Wind Speed Gust Speed Precip Events Conditions
12:02 AM 60.8 °F 59.0 °F 94% 29.78 in 6.0 mi South 8.1 mph - N/A   Partly Cloudy
12:37 AM 60.8 °F 59.0 °F 94% 29.76 in 4.0 mi South 5.8 mph - N/A   Mostly Cloudy
12:53 AM 60.1 °F 59.0 °F 96% 29.77 in 4.0 mi South 5.8 mph - N/A   Overcast
1:35 AM 60.8 °F 59.0 °F 94% 29.76 in 5.0 mi South 5.8 mph - 0.00 in   Overcast
1:53 AM 60.1 °F 59.0 °F 96% 29.76 in 5.0 mi South 8.1 mph - 0.00 in   Overcast
2:53 AM 60.1 °F 59.0 °F 96% 29.73 in 7.0 mi SSE 9.2 mph - 0.00 in   Overcast
3:53 AM 60.1 °F 59.0 °F 96% 29.71 in 9.0 mi SSE 6.9 mph - N/A   Overcast
4:53 AM 61.0 °F 60.1 °F 97% 29.70 in 10.0 mi South 8.1 mph - 0.00 in Rain Light Rain
5:25 AM 62.6 °F 60.8 °F 94% 29.70 in 10.0 mi SSW 9.2 mph - 0.00 in   Overcast
5:53 AM 62.1 °F 60.1 °F 93% 29.69 in 10.0 mi SSW 9.2 mph - 0.00 in   Overcast
6:14 AM 62.6 °F 60.8 °F 94% 29.68 in 10.0 mi SSW 11.5 mph - N/A   Overcast
6:53 AM 63.0 °F 62.1 °F 97% 29.68 in 7.0 mi SW 15.0 mph - N/A   Overcast
7:36 AM 62.6 °F 60.8 °F 94% 29.69 in 6.0 mi WSW 16.1 mph - N/A   Mostly Cloudy
7:53 AM 63.0 °F 61.0 °F 93% 29.70 in 6.0 mi WSW 16.1 mph 24.2 mph 0.01 in   Mostly Cloudy
8:53 AM 64.0 °F 60.1 °F 87% 29.72 in 10.0 mi WSW 16.1 mph 24.2 mph N/A   Clear
9:53 AM 64.9 °F 55.9 °F 73% 29.74 in 10.0 mi West 20.7 mph 28.8 mph N/A   Clear
10:53 AM 66.0 °F 55.0 °F 68% 29.75 in 10.0 mi West 18.4 mph 27.6 mph N/A   Partly Cloudy
11:53 AM 66.9 °F 51.1 °F 57% 29.77 in 10.0 mi West 23.0 mph - N/A   Clear
12:53 PM 64.9 °F 55.0 °F 70% 29.77 in 10.0 mi WSW 18.4 mph 24.2 mph N/A   Clear
1:53 PM 66.0 °F 54.0 °F 65% 29.78 in 10.0 mi WSW 18.4 mph 24.2 mph N/A   Clear
2:53 PM 64.9 °F 55.0 °F 70% 29.79 in 10.0 mi WSW 17.3 mph 24.2 mph N/A   Clear
3:53 PM 64.0 °F 54.0 °F 70% 29.80 in 10.0 mi WSW 15.0 mph 24.2 mph N/A   Clear
4:53 PM 62.1 °F 53.1 °F 72% 29.81 in 10.0 mi West 17.3 mph 21.9 mph N/A   Clear
5:53 PM 60.1 °F 53.1 °F 78% 29.83 in 10.0 mi West 12.7 mph - N/A   Clear
6:53 PM 59.0 °F 53.1 °F 81% 29.85 in 10.0 mi West 9.2 mph - N/A   Clear
7:53 PM 59.0 °F 53.1 °F 81% 29.86 in 10.0 mi West 11.5 mph - N/A   Clear
8:53 PM 59.0 °F 53.1 °F 81% 29.88 in 10.0 mi West 10.4 mph - N/A   Clear
9:53 PM 57.9 °F 53.1 °F 84% 29.91 in 10.0 mi West 5.8 mph - N/A   Clear
10:53 PM 55.9 °F 53.1 °F 90% 29.92 in 10.0 mi West 8.1 mph - N/A   Clear
11:53 PM 55.9 °F 52.0 °F 87% 29.92 in 10.0 mi West 6.9 mph - N/A   Clear